Skip Page Navigation
NASA JPL Caltech
NASA Logo - Jet Propulsion Laboratory + View the NASA Portal
+ Center for Near-Earth Object Studies
JPL Home Earth Solar System Stars & Galaxies Technology
JPL Solar System Dynamics
BODIES ORBITS EPHEMERIDES TOOLS PHYSICAL DATA DISCOVERY FAQ SITE MAP
JPL Small-Body Database Browser
Search: [ help ]  
212337 (2005 SD273)
Classification: Outer Main-belt Asteroid          SPK-ID: 2212337
Ephemeris | Orbit Diagram | Orbital Elements | Mission Design | Physical Parameters | Discovery Circumstances | Close-Approach Data ]

[ show orbit diagram ]
Orbital Elements at Epoch 2459000.5 (2020-May-31.0) TDB
Reference: JPL 15 (heliocentric ecliptic J2000)
 Element Value Uncertainty (1-sigma)   Units 
e .1571897354246571 6.176e-08  
a 3.984351889474155 5.945e-08 au
q 3.35805267012898 2.427e-07 au
i .8610848367506908 6.3987e-06 deg
node 39.12078381523516 0.00048457 deg
peri 253.6225076859538 0.00048532 deg
M 32.04035174264716 2.511e-05 deg
tp 2458741.958816569446
(2019-Sep-15.45881657)
0.00020287 TDB
period 2904.925226245652
7.95
6.5016e-05
1.78e-07
d
yr
n .1239274583550182 2.7736e-09 deg/d
Q 4.610651108819329 6.8795e-08 au
  Orbit Determination Parameters
   # obs. used (total)      258  
   data-arc span      6804 days (18.63 yr)  
   first obs. used      2002-03-16  
   last obs. used      2020-10-31  
   planetary ephem.      DE431  
   SB-pert. ephem.      SB431-N16  
   condition code      0  
   norm. resid. RMS      .55609  
   source      ORB  
   producer      Otto Matic  
   solution date      2020-Nov-12 04:01:41  

Additional Information
 Earth MOID = 2.34205 au 
 Jupiter MOID = .595546 au 
 T_jup = 3.034 
[ show covariance matrix ]

Ephemeris | Orbit Diagram | Orbital Elements | Mission Design | Physical Parameters | Discovery Circumstances | Close-Approach Data ]

Physical Parameter Table
Parameter Symbol Value Units Sigma Reference Notes
absolute magnitude H 14.8   n/a MPO440125  

212337 (2005 SD273)          Discovered 2005-Sep-30 by Mt. Lemmon Survey at Mount Lemmon
Reference: 20090409/Numbers.arcLast Updated: 2009-04-10

[ show close-approach data ]
Ephemeris | Orbit Diagram | Orbital Elements | Mission Design | Physical Parameters | Discovery Circumstances | Close-Approach Data ]
ABOUT SSD CREDITS/AWARDS PRIVACY/COPYRIGHT GLOSSARY LINKS
FirstGov 2020-Nov-27 18:11 UT
(server date/time)  
NASA Home Page
Site Manager:   Ryan S. Park
Webmaster  Alan B. Chamberlin